IBE6162 LEMG-LPPT

Flight info

Callsign IBE6162
Flight time 0h 52m
Altitude 36000
Route SVL M744 ROSAL/N0326F180 A44 ESP
Aircraft A20N/M-SDE2E3FGHIRWXY/LB1

Departure

Time 2026-05-06 15:25
Airport Málaga-Costa del Sol Airport (LEMG)

Arrival

Time 2026-05-06 16:18
Airport Lisbon Humberto Delgado Airport (LPPT)
Time Latitude Longitude Altitude Speed Heading
2026-05-06 14:59 36.67805 -4.49664 46 ft 0 kts 133°
2026-05-06 15:16 36.67814 -4.49676 46 ft 2 kts 136°
2026-05-06 15:16 36.67826 -4.49690 47 ft 2 kts 140°
2026-05-06 15:16 36.67833 -4.49697 47 ft 0 kts 146°
2026-05-06 15:17 36.67843 -4.49704 43 ft 2 kts 169°
2026-05-06 15:17 36.67855 -4.49698 47 ft 1 kts 245°
2026-05-06 15:17 36.67856 -4.49695 48 ft 0 kts 245°
2026-05-06 15:21 36.67856 -4.49696 48 ft 1 kts 245°
2026-05-06 15:21 36.67837 -4.49761 46 ft 8 kts 248°
2026-05-06 15:21 36.67806 -4.49837 48 ft 12 kts 229°
2026-05-06 15:21 36.67732 -4.49882 48 ft 12 kts 212°
2026-05-06 15:22 36.67708 -4.49975 45 ft 10 kts 297°
2026-05-06 15:22 36.67746 -4.49996 47 ft 7 kts 338°
2026-05-06 15:22 36.67796 -4.50045 49 ft 11 kts 313°
2026-05-06 15:22 36.67858 -4.50129 49 ft 15 kts 313°
2026-05-06 15:23 36.67937 -4.50241 49 ft 19 kts 311°
2026-05-06 15:23 36.68034 -4.50375 48 ft 23 kts 313°
2026-05-06 15:23 36.68146 -4.50529 49 ft 25 kts 311°
2026-05-06 15:23 36.68267 -4.50703 49 ft 28 kts 310°
2026-05-06 15:24 36.68400 -4.50888 49 ft 30 kts 310°
2026-05-06 15:24 36.68532 -4.51037 47 ft 21 kts 322°
2026-05-06 15:24 36.68534 -4.51177 51 ft 17 kts 217°
2026-05-06 15:24 36.68427 -4.51200 53 ft 15 kts 155°
2026-05-06 15:25 36.68292 -4.51037 51 ft 54 kts 130°
2026-05-06 15:25 36.67884 -4.50459 50 ft 119 kts 132°
2026-05-06 15:25 36.67221 -4.49543 140 ft 157 kts 133°
2026-05-06 15:25 36.66498 -4.48545 713 ft 161 kts 131°
2026-05-06 15:26 36.65683 -4.47350 1283 ft 198 kts 132°
2026-05-06 15:26 36.64793 -4.46040 2117 ft 201 kts 133°
2026-05-06 15:26 36.63806 -4.44688 2677 ft 222 kts 133°
2026-05-06 15:26 36.62565 -4.43523 3431 ft 233 kts 160°
2026-05-06 15:27 36.60969 -4.43311 4437 ft 238 kts 191°
2026-05-06 15:27 36.59348 -4.43844 5456 ft 243 kts 197°
2026-05-06 15:27 36.57714 -4.44462 6535 ft 246 kts 198°
2026-05-06 15:27 36.56080 -4.45080 7697 ft 244 kts 199°
2026-05-06 15:28 36.54480 -4.45744 8840 ft 241 kts 210°
2026-05-06 15:28 36.53212 -4.47076 9869 ft 242 kts 237°
2026-05-06 15:28 36.52468 -4.48983 10714 ft 251 kts 247°
2026-05-06 15:28 36.51771 -4.51029 11499 ft 261 kts 247°
2026-05-06 15:29 36.51113 -4.53144 12480 ft 263 kts 255°
2026-05-06 15:29 36.50869 -4.55377 13431 ft 268 kts 270°
2026-05-06 15:29 36.51078 -4.57719 14083 ft 284 kts 277°
2026-05-06 15:29 36.51385 -4.60289 14203 ft 316 kts 277°
2026-05-06 15:30 36.51715 -4.63114 14323 ft 342 kts 277°
2026-05-06 15:30 36.52056 -4.66088 14844 ft 351 kts 277°
2026-05-06 15:30 36.52483 -4.69078 15797 ft 352 kts 280°
2026-05-06 15:30 36.52972 -4.72081 16584 ft 357 kts 280°
2026-05-06 15:31 36.53464 -4.75131 17414 ft 361 kts 279°
2026-05-06 15:31 36.53957 -4.78206 18213 ft 365 kts 279°
2026-05-06 15:31 36.54454 -4.81316 18939 ft 367 kts 279°
2026-05-06 15:32 36.55284 -4.86509 20282 ft 368 kts 278°
2026-05-06 15:32 36.55950 -4.90691 21293 ft 371 kts 278°
2026-05-06 15:32 36.56582 -4.93776 22041 ft 375 kts 283°
2026-05-06 15:32 36.57323 -4.96907 22754 ft 379 kts 283°
2026-05-06 15:33 36.58062 -5.00060 23423 ft 381 kts 282°
2026-05-06 15:33 36.58807 -5.03240 24026 ft 384 kts 282°
2026-05-06 15:33 36.59554 -5.06434 24557 ft 385 kts 282°
2026-05-06 15:33 36.60304 -5.09646 25100 ft 388 kts 282°
2026-05-06 15:34 36.61060 -5.12898 25600 ft 392 kts 282°
2026-05-06 15:34 36.61820 -5.16166 26223 ft 392 kts 281°
2026-05-06 15:34 36.62581 -5.19436 26777 ft 395 kts 281°
2026-05-06 15:34 36.63337 -5.22694 27292 ft 398 kts 281°
2026-05-06 15:35 36.64109 -5.26031 27729 ft 402 kts 281°
2026-05-06 15:35 36.64886 -5.29385 28271 ft 404 kts 281°
2026-05-06 15:35 36.65666 -5.32758 28770 ft 404 kts 281°
2026-05-06 15:35 36.66504 -5.36128 29133 ft 413 kts 285°
2026-05-06 15:36 36.67829 -5.39341 29573 ft 424 kts 297°
2026-05-06 15:36 36.69724 -5.42232 30013 ft 438 kts 308°
2026-05-06 15:36 36.72163 -5.44639 30337 ft 454 kts 321°
2026-05-06 15:36 36.74975 -5.46438 30731 ft 464 kts 328°
2026-05-06 15:37 36.77921 -5.48120 31099 ft 466 kts 328°
2026-05-06 15:37 36.80886 -5.49799 31594 ft 466 kts 328°
2026-05-06 15:37 36.83828 -5.51476 32112 ft 464 kts 328°
2026-05-06 15:37 36.86752 -5.53154 32617 ft 463 kts 327°
2026-05-06 15:38 36.89678 -5.54841 33110 ft 461 kts 327°
2026-05-06 15:38 36.92591 -5.56527 33592 ft 460 kts 327°
2026-05-06 15:38 36.95490 -5.58207 34030 ft 459 kts 327°
2026-05-06 15:38 36.98389 -5.59890 34428 ft 458 kts 327°
2026-05-06 15:39 37.01274 -5.61566 34823 ft 456 kts 327°
2026-05-06 15:39 37.04151 -5.63240 35195 ft 455 kts 327°
2026-05-06 15:39 37.07021 -5.64911 35567 ft 454 kts 327°
2026-05-06 15:39 37.09891 -5.66584 35736 ft 453 kts 328°
2026-05-06 15:40 37.12701 -5.68223 35845 ft 451 kts 328°
2026-05-06 15:40 37.15545 -5.69881 35894 ft 451 kts 329°
2026-05-06 15:40 37.21538 -5.72438 35890 ft 459 kts 341°
2026-05-06 15:41 37.27895 -5.73695 35886 ft 464 kts 346°
2026-05-06 15:41 37.34300 -5.74784 35902 ft 463 kts 345°
2026-05-06 15:42 37.37399 -5.75692 35885 ft 453 kts 334°
2026-05-06 15:42 37.40255 -5.77261 35879 ft 444 kts 324°
2026-05-06 15:42 37.44967 -5.82010 35882 ft 428 kts 305°
2026-05-06 15:43 37.48170 -5.88199 35885 ft 420 kts 294°
2026-05-06 15:43 37.51060 -5.94603 35891 ft 421 kts 294°
2026-05-06 15:44 37.53958 -6.01025 35894 ft 421 kts 294°
2026-05-06 15:44 37.56848 -6.07458 35903 ft 422 kts 295°
2026-05-06 15:45 37.59726 -6.13885 35890 ft 423 kts 295°
2026-05-06 15:45 37.62618 -6.20347 35892 ft 423 kts 295°
2026-05-06 15:46 37.65507 -6.26816 35884 ft 423 kts 295°
2026-05-06 15:46 37.68392 -6.33290 35888 ft 422 kts 295°
2026-05-06 15:47 37.71267 -6.39763 35891 ft 422 kts 295°
2026-05-06 15:47 37.74117 -6.46194 35890 ft 422 kts 295°
2026-05-06 15:48 37.76972 -6.52656 35881 ft 421 kts 296°
2026-05-06 15:48 37.79837 -6.59141 35887 ft 422 kts 296°
2026-05-06 15:49 37.82694 -6.65621 35886 ft 421 kts 296°
2026-05-06 15:49 37.85547 -6.72108 35885 ft 421 kts 296°
2026-05-06 15:50 37.88394 -6.78595 35885 ft 421 kts 296°
2026-05-06 15:50 37.91243 -6.85035 35885 ft 422 kts 300°
2026-05-06 15:51 37.94802 -6.90976 35882 ft 421 kts 298°
2026-05-06 15:51 37.97183 -6.97692 35878 ft 418 kts 289°
2026-05-06 15:52 37.99311 -7.04539 35881 ft 418 kts 289°
2026-05-06 15:52 38.01433 -7.11400 35883 ft 418 kts 289°
2026-05-06 15:53 38.03552 -7.18259 35878 ft 418 kts 289°
2026-05-06 15:53 38.05669 -7.25132 35877 ft 418 kts 289°
2026-05-06 15:54 38.07781 -7.32025 35880 ft 418 kts 289°
2026-05-06 15:54 38.09875 -7.38868 35740 ft 419 kts 289°
2026-05-06 15:55 38.10924 -7.42317 35378 ft 419 kts 289°
2026-05-06 15:55 38.11908 -7.45795 34988 ft 417 kts 287°
2026-05-06 15:55 38.12845 -7.49275 34604 ft 417 kts 287°
2026-05-06 15:55 38.13778 -7.52770 34227 ft 418 kts 287°
2026-05-06 15:56 38.14709 -7.56282 33735 ft 419 kts 287°
2026-05-06 15:56 38.15640 -7.59793 33092 ft 421 kts 287°
2026-05-06 15:56 38.16590 -7.63312 32462 ft 420 kts 287°
2026-05-06 15:56 38.17554 -7.66833 31850 ft 421 kts 287°
2026-05-06 15:57 38.18522 -7.70354 31244 ft 424 kts 287°
2026-05-06 15:57 38.19503 -7.73906 30647 ft 427 kts 287°
2026-05-06 15:57 38.20492 -7.77470 30079 ft 427 kts 287°
2026-05-06 15:57 38.21482 -7.81023 29402 ft 423 kts 287°
2026-05-06 15:58 38.22448 -7.84485 28745 ft 418 kts 287°
2026-05-06 15:58 38.23415 -7.87952 28088 ft 413 kts 287°
2026-05-06 15:58 38.24373 -7.91374 27457 ft 409 kts 287°
2026-05-06 15:58 38.25322 -7.94761 26825 ft 406 kts 287°
2026-05-06 15:59 38.26269 -7.98141 26202 ft 404 kts 287°
2026-05-06 15:59 38.27211 -8.01501 25610 ft 401 kts 287°
2026-05-06 15:59 38.28145 -8.04826 25020 ft 397 kts 287°
2026-05-06 15:59 38.29074 -8.08132 24447 ft 395 kts 287°
2026-05-06 16:00 38.29999 -8.11420 23883 ft 393 kts 287°
2026-05-06 16:00 38.30608 -8.13583 23505 ft 391 kts 287°
2026-05-06 16:00 38.31522 -8.16821 22857 ft 387 kts 287°
2026-05-06 16:00 38.32389 -8.20056 22209 ft 385 kts 286°
2026-05-06 16:01 38.33510 -8.24328 21368 ft 381 kts 286°
2026-05-06 16:01 38.34342 -8.27522 20746 ft 378 kts 286°
2026-05-06 16:01 38.35160 -8.30684 20148 ft 377 kts 286°
2026-05-06 16:01 38.35704 -8.32795 19755 ft 376 kts 286°
2026-05-06 16:02 38.36505 -8.35946 19179 ft 373 kts 286°
2026-05-06 16:02 38.37292 -8.39095 18651 ft 371 kts 286°
2026-05-06 16:02 38.38074 -8.42235 18251 ft 370 kts 286°
2026-05-06 16:02 38.38854 -8.45351 17808 ft 367 kts 286°
2026-05-06 16:03 38.39629 -8.48438 17386 ft 364 kts 286°
2026-05-06 16:03 38.40395 -8.51523 16967 ft 364 kts 286°
2026-05-06 16:03 38.41161 -8.54577 16561 ft 359 kts 286°
2026-05-06 16:03 38.41922 -8.57596 16147 ft 357 kts 286°
2026-05-06 16:04 38.42681 -8.60625 15741 ft 357 kts 286°
2026-05-06 16:04 38.43424 -8.63592 15346 ft 354 kts 286°
2026-05-06 16:04 38.44163 -8.66573 14954 ft 353 kts 286°
2026-05-06 16:04 38.44905 -8.69558 14571 ft 351 kts 286°
2026-05-06 16:05 38.45644 -8.72503 14184 ft 347 kts 286°
2026-05-06 16:05 38.46361 -8.75447 13808 ft 346 kts 285°
2026-05-06 16:05 38.47080 -8.78356 13388 ft 341 kts 286°
2026-05-06 16:05 38.47784 -8.81267 12977 ft 344 kts 286°
2026-05-06 16:06 38.48483 -8.84184 12556 ft 341 kts 285°
2026-05-06 16:06 38.49182 -8.87038 12146 ft 334 kts 285°
2026-05-06 16:06 38.49858 -8.89824 11653 ft 331 kts 286°
2026-05-06 16:06 38.50526 -8.92653 11155 ft 334 kts 285°
2026-05-06 16:07 38.51196 -8.95479 10661 ft 331 kts 286°
2026-05-06 16:07 38.51856 -8.98283 10194 ft 327 kts 286°
2026-05-06 16:07 38.52502 -9.01055 9691 ft 323 kts 286°
2026-05-06 16:07 38.53139 -9.03792 9163 ft 321 kts 287°
2026-05-06 16:08 38.53892 -9.06514 8638 ft 327 kts 291°
2026-05-06 16:08 38.54688 -9.09224 8144 ft 324 kts 291°
2026-05-06 16:08 38.55475 -9.11914 7636 ft 321 kts 291°
2026-05-06 16:08 38.56248 -9.14579 7137 ft 318 kts 291°
2026-05-06 16:09 38.57000 -9.17216 6652 ft 315 kts 291°
2026-05-06 16:09 38.57749 -9.19853 6156 ft 316 kts 291°
2026-05-06 16:09 38.58496 -9.22485 5635 ft 314 kts 291°
2026-05-06 16:09 38.59238 -9.25090 5135 ft 310 kts 291°
2026-05-06 16:10 38.59959 -9.27657 4625 ft 301 kts 291°
2026-05-06 16:10 38.60497 -9.30165 4304 ft 285 kts 276°
2026-05-06 16:10 38.60223 -9.32541 4207 ft 269 kts 250°
2026-05-06 16:10 38.59125 -9.34469 4108 ft 275 kts 222°
2026-05-06 16:11 38.57404 -9.35580 4014 ft 282 kts 194°
2026-05-06 16:11 38.55437 -9.35629 3997 ft 281 kts 168°
2026-05-06 16:11 38.53702 -9.34627 4003 ft 275 kts 140°
2026-05-06 16:11 38.52532 -9.32744 4004 ft 272 kts 112°
2026-05-06 16:12 38.51817 -9.30557 4000 ft 266 kts 109°
2026-05-06 16:12 38.51229 -9.28348 3995 ft 260 kts 95°
2026-05-06 16:12 38.51381 -9.26102 3999 ft 253 kts 66°
2026-05-06 16:12 38.52337 -9.24354 3997 ft 231 kts 34°
2026-05-06 16:13 38.53695 -9.23462 3986 ft 212 kts 19°
2026-05-06 16:13 38.55023 -9.22719 3991 ft 212 kts 22°
2026-05-06 16:13 38.56436 -9.22141 3990 ft 213 kts
2026-05-06 16:13 38.57914 -9.22131 3990 ft 210 kts 358°
2026-05-06 16:14 38.59322 -9.22160 3977 ft 194 kts 358°
2026-05-06 16:14 38.60668 -9.22205 3810 ft 198 kts 357°
2026-05-06 16:14 38.62058 -9.22247 3461 ft 204 kts 358°
2026-05-06 16:14 38.63487 -9.22278 3185 ft 203 kts 358°
2026-05-06 16:15 38.64860 -9.22187 3063 ft 194 kts 15°
2026-05-06 16:15 38.66044 -9.21424 2983 ft 186 kts 27°
2026-05-06 16:15 38.67120 -9.20600 2972 ft 175 kts 24°
2026-05-06 16:15 38.68147 -9.19746 2940 ft 176 kts 39°
2026-05-06 16:16 38.69061 -9.18586 2379 ft 195 kts 36°
2026-05-06 16:16 38.70177 -9.17744 2102 ft 181 kts 17°
2026-05-06 16:16 38.71356 -9.17168 1631 ft 183 kts 19°
2026-05-06 16:16 38.72482 -9.16548 1293 ft 172 kts 19°
2026-05-06 16:17 38.73541 -9.15981 1096 ft 157 kts 14°
2026-05-06 16:17 38.74586 -9.15454 767 ft 156 kts 20°
2026-05-06 16:17 38.75538 -9.14973 610 ft 143 kts 15°
2026-05-06 16:17 38.76440 -9.14485 419 ft 131 kts 14°
2026-05-06 16:18 38.77230 -9.14101 352 ft 103 kts 22°
2026-05-06 16:18 38.77747 -9.13806 348 ft 60 kts 24°
2026-05-06 16:18 38.77934 -9.13684 351 ft 27 kts 28°
2026-05-06 16:18 38.78094 -9.13613 345 ft 26 kts 22°
2026-05-06 16:19 38.78261 -9.13498 345 ft 27 kts 40°
2026-05-06 16:19 38.78322 -9.13416 345 ft 1 kts 51°
2026-05-06 16:19 38.78343 -9.13388 347 ft 13 kts 46°
2026-05-06 16:19 38.78373 -9.13288 350 ft 7 kts 120°
2026-05-06 16:20 38.78312 -9.13268 348 ft 12 kts 195°
2026-05-06 16:20 38.78219 -9.13313 351 ft 16 kts 202°
2026-05-06 16:20 38.78104 -9.13374 351 ft 20 kts 203°
2026-05-06 16:20 38.77967 -9.13401 347 ft 21 kts 168°
2026-05-06 16:21 38.77815 -9.13363 347 ft 24 kts 168°
2026-05-06 16:21 38.77686 -9.13321 351 ft 17 kts 181°
2026-05-06 16:21 38.77554 -9.13312 349 ft 19 kts 166°
2026-05-06 16:21 38.77472 -9.13275 353 ft 9 kts 101°
2026-05-06 16:22 38.77483 -9.13207 353 ft 9 kts 78°
2026-05-06 16:22 38.77489 -9.13165 347 ft 0 kts 81°